BAGASKAR Weather Reports


time (UTC)temp
C
wind
direction
speed
KPH
gust
KPH
rain 1hr
cm
rain 24hr
cm
rain mn
cm
humidity
%
barometer
mb
20260508094730 9 219 9.7 19.3 0.00 0.00 0.00 56 1026.5
20260508092730 10 204 8.0 14.5 0.00 0.00 0.00 50 1026.5
20260508090730 10 258 6.4 20.9 0.00 0.00 0.00 51 1026.5
20260508084730 11 46 8.0 16.1 0.00 0.00 0.00 43 1026.6
20260508082730 11 33 14.5 17.7 0.00 0.00 0.00 52 1026.5
20260508080731 11 39 16.1 25.7 0.00 0.00 0.00 48 1026.4
20260508074730 10 45 14.5 25.7 0.00 0.00 0.00 51 1026.2
20260508070730 9 45 9.7 12.9 0.00 0.00 0.00 48 1026.2
20260508064730 8 46 11.3 16.1 0.00 0.00 0.00 52 1026.1
20260508062729 8 35 9.7 17.7 0.00 0.00 0.00 60 1025.9
20260508060730 7 24 6.4 8.0 0.00 0.00 0.00 58 1025.7
20260508054730 7 24 9.7 12.9 0.00 0.00 0.00 62 1025.5
20260508050730 6 27 14.5 19.3 0.00 0.00 0.00 64 1025.0
20260508044730 6 26 12.9 16.1 0.00 0.00 0.00 64 1024.7
20260508040729 6 27 16.1 19.3 0.00 0.00 0.00 66 1024.3
20260508034729 5 27 17.7 24.1 0.00 0.00 0.00 65 1024.1
20260508032730 5 24 17.7 25.7 0.00 0.00 0.00 65 1023.9
20260508030730 5 25 17.7 25.7 0.00 0.00 0.00 66 1023.7
20260508024728 5 25 17.7 24.1 0.00 0.00 0.00 68 1023.4
20260508022728 5 20 17.7 24.1 0.00 0.00 0.00 66 1023.1
20260508020729 5 19 19.3 24.1 0.00 0.00 0.00 65 1022.4
20260508014729 5 19 19.3 27.4 0.00 0.00 0.00 64 1022.6
20260508012728 5 19 20.9 29.0 0.00 0.00 0.00 61 1022.3
20260508010729 5 17 19.3 27.4 0.00 0.00 0.00 63 1022.2
20260508004728 6 7 19.3 25.7 0.00 0.00 0.00 61 1021.8
20260508002729 6 7 19.3 27.4 0.00 0.00 0.00 65 1021.6
20260508000729 6 3 20.9 29.0 0.00 0.00 0.00 61 1021.4
20260507234729 6 1 20.9 29.0 0.00 0.00 0.00 61 1021.1
20260507232728 6 360 19.3 27.4 0.00 0.00 0.00 59 1020.9
20260507230728 6 357 17.7 25.7 0.00 0.00 0.00 56 1020.6
20260507224728 7 6 20.9 29.0 0.00 0.00 0.00 58 1020.3
20260507222728 7 3 22.5 30.6 0.00 0.00 0.00 57 1020.1
20260507220728 7 1 20.9 30.6 0.00 0.00 0.00 51 1019.9
20260507214728 7 352 19.3 27.4 0.00 0.00 0.00 46 1019.7
20260507212728 7 355 20.9 29.0 0.00 0.00 0.00 46 1019.5
20260507204728 8 355 17.7 29.0 0.00 0.00 0.00 45 1018.9
20260507202728 8 358 20.9 29.0 0.00 0.00 0.00 44 1018.8
20260507200728 8 353 20.9 30.6 0.00 0.00 0.00 43 1018.4
20260507194728 7 349 19.3 33.8 0.00 0.00 0.00 49 1018.0
20260507192727 7 339 14.5 24.1 0.00 0.00 0.00 63 1017.6
20260507190727 6 326 12.9 17.7 0.00 0.00 0.00 78 1017.3
20260507184728 7 265 16.1 19.3 0.00 0.00 0.00 89 1017.1
20260507182727 7 250 19.3 24.1 0.00 0.00 0.00 70 1016.9
20260507180726 7 247 19.3 24.1 0.00 0.00 0.00 68 1016.9
20260507174727 7 252 22.5 25.7 0.00 0.00 0.00 62 1016.9
20260507172726 8 248 22.5 27.4 0.00 0.00 0.00 56 1016.8
20260507170727 8 259 20.9 25.7 0.00 0.00 0.00 58 1016.8
20260507164727 9 256 22.5 25.7 0.00 0.00 0.00 56 1016.8
20260507162727 10 252 24.1 27.4 0.00 0.00 0.00 50 1016.7
20260507160727 11 251 20.9 25.7 0.00 0.00 0.00 41 1016.6
20260507154727 12 251 17.7 20.9 0.00 0.00 0.00 44 1016.5
20260507152726 11 257 19.3 20.9 0.00 0.00 0.00 40 1016.5
20260507150728 11 257 17.7 20.9 0.00 0.00 0.00 44 1016.5
20260507144727 11 261 16.1 19.3 0.00 0.00 0.00 48 1016.4
20260507142728 11 257 17.7 20.9 0.00 0.00 0.00 51 1016.3
20260507140726 11 256 17.7 19.3 0.00 0.00 0.00 52 1016.1
20260507134727 11 260 16.1 19.3 0.00 0.00 0.00 49 1016.1
20260507132726 11 251 11.3 12.9 0.00 0.00 0.00 46 1016.1
20260507130727 11 248 11.3 12.9 0.00 0.00 0.00 48 1016.2
20260507124726 11 232 9.7 11.3 0.00 0.00 0.00 49 1016.1
20260507122726 9 214 8.0 12.9 0.00 0.00 0.00 54 1016.1
20260507120727 10 181 9.7 14.5 0.00 0.00 0.00 65 1016.1
20260507114727 10 198 8.0 12.9 0.00 0.00 0.00 59 1016.1
20260507112725 9 182 11.3 14.5 0.00 0.00 0.00 69 1016.1
20260507110725 9 169 8.0 12.9 0.00 0.00 0.00 65 1016.0
20260507104725 10 166 9.7 14.5 0.00 0.00 0.00 68 1016.0
20260507102725 10 161 8.0 14.5 0.00 0.00 0.00 64 1016.0
20260507100725 9 175 6.4 12.9 0.00 0.00 0.00 69 1015.9